Theta_e
291 290 290 289 289 289 289 289 288 289 289 289 289 289 289 289 289 289 290 290 290 291 291 292 293 294 295 296 296 297 298 299 299 299 299 299 300 301 302 304 305 306 307 307 307 307 308 308 308 308 308 309 309 310 311 311 312 312 312 312 313 313 313 314 314 314 314 315 314
290 290 289 289 289 288 288 288 288 288 288 289 288 289 289 289 289 289 289 290 290 291 291 292 292 293 294 294 295 296 297 297 298 298 299 299 300 301 302 302 304 305 306 307 307 307 307 308 308 308 308 308 309 309 310 311 312 312 311 312 312 312 313 313 313 314 314 314 315
290 290 289 289 289 289 288 288 288 289 289 289 289 289 289 289 289 289 289 290 290 291 291 291 292 292 293 294 294 295 296 296 296 297 298 299 300 301 301 301 303 304 305 306 307 307 307 308 307 307 307 308 308 308 309 310 310 311 311 311 311 312 312 312 313 313 314 314 314
289 289 289 289 289 289 288 288 288 289 289 289 289 289 289 289 289 289 289 290 290 290 291 291 291 292 292 293 294 294 295 295 295 296 297 298 299 300 301 301 301 302 304 306 307 307 308 308 307 307 307 308 308 308 308 308 309 310 310 311 311 311 312 312 313 313 313 314 314
289 289 289 289 290 290 290 290 290 290 290 290 289 289 289 289 289 289 289 289 290 290 291 291 291 292 292 293 293 294 294 295 294 295 295 296 297 299 299 300 301 302 303 305 306 307 308 308 308 308 308 308 308 308 308 309 309 309 310 311 311 311 312 312 312 313 313 313 314
289 290 290 290 291 291 291 291 291 291 291 291 290 290 290 290 289 289 289 289 290 290 291 291 291 291 292 293 293 293 293 294 295 295 296 296 296 297 298 299 300 301 302 304 306 307 307 307 307 307 308 308 308 308 309 309 309 309 309 310 310 311 312 312 313 313 314 314 315
290 290 290 290 291 291 291 291 291 291 291 291 291 290 290 290 290 290 290 290 290 290 291 291 291 292 292 292 292 293 293 293 294 294 295 295 296 297 298 298 300 301 301 303 304 306 307 307 307 306 306 306 307 308 309 309 309 308 308 309 310 311 312 313 313 314 314 314 315
290 291 291 291 291 291 291 291 291 291 291 290 290 291 291 290 290 290 290 290 290 290 290 290 291 292 292 292 292 293 293 293 293 294 294 295 296 297 298 298 299 300 301 302 303 304 305 306 306 306 307 307 307 307 308 309 309 309 308 309 309 311 312 314 315 315 314 315 316
290 291 291 292 292 291 291 291 291 291 291 291 291 291 291 291 290 290 290 290 290 291 291 291 291 292 292 292 292 293 293 293 293 294 294 295 296 297 297 298 298 299 300 301 302 302 304 305 305 306 307 307 307 308 308 309 310 309 309 308 309 310 312 314 314 314 315 315 316
290 291 291 291 291 291 291 291 291 291 291 291 291 291 291 290 290 290 290 290 290 291 291 291 292 292 292 292 292 293 293 294 293 294 294 295 295 296 296 297 298 298 299 300 301 302 302 303 304 306 307 307 308 308 309 309 309 310 310 309 309 310 312 312 313 314 314 315 316
290 290 290 290 291 291 291 291 291 291 291 291 291 291 291 290 290 290 291 291 291 291 291 292 292 292 292 292 292 293 293 293 293 294 294 295 295 296 296 297 298 298 299 300 301 301 302 303 304 305 307 307 308 308 309 309 309 309 310 310 311 311 312 312 313 313 314 315 316
290 290 290 290 291 290 290 290 290 290 291 291 291 291 292 292 291 291 291 291 291 291 292 292 292 292 292 292 293 293 293 294 294 294 295 295 296 296 296 297 298 298 299 300 301 301 301 302 303 304 306 307 307 308 308 308 308 309 309 310 310 311 312 313 314 314 315 315 316
290 290 290 290 291 290 290 290 290 290 290 290 291 291 291 291 292 292 292 291 291 291 292 293 293 293 293 293 293 293 294 294 295 295 295 295 296 296 297 297 297 298 299 299 300 300 301 301 302 303 305 306 307 307 308 308 308 309 309 310 310 311 311 313 314 315 315 316 316
289 290 290 290 290 290 290 289 289 289 289 289 290 290 291 291 291 291 291 291 291 292 292 293 293 293 293 294 294 294 294 295 295 295 295 295 296 296 297 297 298 298 298 299 300 300 301 301 302 303 305 306 307 307 308 308 308 308 309 309 310 310 311 313 314 314 315 316 316
289 289 289 289 289 289 289 288 288 288 289 289 289 290 290 290 291 291 291 291 292 292 292 293 293 293 294 294 295 295 295 295 295 295 295 295 296 297 297 297 298 298 299 300 300 301 301 302 302 303 305 306 307 307 308 308 308 308 308 309 309 310 311 312 313 314 314 315 316
288 288 288 288 288 288 288 287 287 287 288 288 289 289 290 290 291 291 291 291 292 292 292 293 293 294 294 295 295 295 295 295 295 295 296 296 296 297 297 298 298 299 300 300 300 301 302 303 303 304 305 306 307 308 308 308 308 308 309 309 309 310 311 312 313 313 314 314 315
288 288 288 287 287 287 287 286 287 287 287 288 288 289 289 290 290 290 290 291 291 291 292 292 293 293 294 294 295 295 295 295 295 295 295 296 296 296 297 297 298 299 299 300 300 301 302 303 304 305 305 307 307 308 308 308 308 308 309 309 310 310 311 311 312 313 314 314 314
287 287 287 286 286 286 286 286 286 287 287 287 288 289 289 289 290 290 290 291 291 291 292 292 293 293 294 294 295 295 295 295 295 295 296 296 296 296 297 297 298 299 299 299 300 301 301 302 304 305 306 307 308 308 309 308 308 308 309 309 310 310 311 311 312 313 313 314 314
286 286 286 286 286 286 286 286 286 287 287 287 288 288 289 289 290 290 290 291 291 292 292 292 293 294 294 294 295 295 295 295 296 296 296 296 296 297 297 297 298 298 299 299 300 301 301 302 303 304 306 307 308 308 308 309 308 308 309 309 309 310 310 311 312 313 314 314 314
286 286 286 285 286 286 286 286 286 287 287 287 288 288 289 289 290 290 290 291 292 292 293 293 294 294 295 295 295 295 295 296 296 296 296 297 297 297 297 298 298 298 299 299 300 300 301 302 303 304 305 306 308 308 308 308 308 308 309 309 309 309 310 310 311 313 313 314 314
286 286 285 286 286 286 286 286 287 287 287 287 288 288 289 289 290 290 291 291 292 293 293 293 294 294 295 295 295 296 296 296 297 297 297 297 297 297 298 298 298 298 299 299 300 300 301 302 303 304 305 306 307 308 309 308 308 308 309 309 309 310 310 310 310 311 312 313 314
285 286 285 286 286 286 286 286 287 287 287 287 288 288 289 289 290 290 291 292 292 293 293 294 294 295 295 295 296 296 296 297 297 298 298 298 298 298 298 299 298 298 299 299 299 300 301 302 303 304 305 306 307 308 309 309 308 308 308 309 309 310 310 310 310 311 312 313 313
285 285 285 286 286 286 286 286 287 287 287 287 288 288 289 290 290 291 291 292 292 293 293 294 294 295 295 295 296 296 296 297 297 298 299 299 299 299 299 299 299 299 299 299 300 300 301 302 303 304 305 306 307 308 309 310 308 308 308 308 309 310 311 311 310 311 312 313 313
285 285 285 286 286 286 286 286 286 287 287 287 288 288 289 289 290 291 291 292 292 293 293 294 294 295 295 296 296 296 296 296 297 297 298 299 299 299 299 299 299 300 299 300 300 300 300 301 302 304 304 305 306 308 310 310 310 309 308 308 309 310 310 311 311 311 311 312 313
285 285 285 285 285 286 286 286 286 286 287 287 288 288 289 289 290 290 291 291 292 292 293 293 294 294 295 295 295 295 295 295 296 296 297 297 298 299 299 299 300 300 300 299 298 297 297 298 300 303 305 306 306 308 309 310 310 310 310 309 309 309 310 310 310 310 311 311 312
285 285 285 285 285 285 285 286 286 286 287 287 288 288 289 289 290 290 291 291 292 292 293 293 293 293 293 294 294 294 294 294 295 295 295 296 296 297 297 298 299 300 300 299 297 296 295 296 297 299 302 305 306 307 308 310 310 310 310 310 309 309 309 310 310 310 310 311 312
285 285 285 285 285 285 285 286 286 286 287 287 287 288 288 289 290 290 290 291 291 292 292 292 292 292 292 293 293 293 293 293 294 294 295 295 295 296 296 297 298 299 299 298 296 295 295 295 295 296 299 303 305 306 307 308 310 310 310 310 310 310 310 310 310 310 310 310 311
285 285 285 285 285 285 285 286 286 286 287 287 287 288 289 289 289 290 290 290 291 291 291 291 292 292 292 293 292 293 293 293 293 294 294 295 295 295 296 296 297 298 298 297 296 295 295 295 295 295 296 299 303 305 306 308 309 310 310 310 310 310 310 310 310 310 310 309 310
284 284 284 284 285 285 285 285 285 286 286 287 288 288 289 289 289 289 289 290 290 290 290 291 291 292 292 292 291 292 292 292 292 293 293 293 294 294 295 295 296 296 296 295 295 295 295 295 295 295 295 296 300 303 305 307 308 309 310 310 310 309 310 310 310 310 310 309 309
284 284 284 284 284 285 285 285 286 286 287 287 287 288 288 288 288 289 289 289 289 289 290 291 291 291 291 291 291 291 291 291 291 292 292 292 293 293 294 295 296 297 296 295 295 295 295 295 295 294 294 294 298 301 304 306 307 308 309 310 310 310 310 310 311 310 310 309 309
284 284 284 284 284 284 285 285 286 286 287 287 287 287 287 287 288 288 288 289 289 289 290 291 290 290 291 291 290 290 290 290 291 291 291 291 291 292 293 295 297 297 297 295 295 295 295 295 295 294 294 293 296 300 303 305 307 308 309 309 310 311 311 310 311 310 310 309 309
284 284 284 284 284 284 285 285 286 286 286 286 287 287 287 287 287 288 288 289 289 290 290 290 290 290 290 290 290 290 290 290 290 290 290 290 291 292 294 296 298 299 299 297 296 296 295 295 295 294 294 293 296 299 303 305 306 308 309 310 311 311 311 311 311 311 311 310 309
283 283 284 283 284 284 284 285 285 286 286 286 286 286 287 287 287 288 288 289 289 289 289 290 289 289 289 289 289 289 289 289 289 289 289 290 291 292 294 296 300 300 297 295 295 295 295 295 295 294 294 293 296 299 303 304 306 308 309 310 311 312 312 311 311 311 310 311 310
283 283 283 283 283 284 284 285 285 285 285 286 286 286 287 287 287 287 288 288 289 289 289 290 289 289 289 289 289 289 289 288 289 289 289 289 291 292 293 296 300 297 292 291 291 292 294 295 295 294 294 293 296 300 303 304 306 308 309 310 311 312 312 312 311 310 310 311 311
283 283 283 283 283 283 284 284 284 285 285 285 286 286 286 287 287 287 287 287 288 289 289 290 290 290 289 289 289 289 288 288 289 288 288 289 290 291 292 294 296 294 292 291 290 291 292 293 294 294 294 293 297 301 304 304 306 308 309 310 311 312 312 311 311 310 311 311 310
282 282 282 282 283 283 283 284 284 284 284 285 285 286 286 286 287 287 287 287 288 288 289 289 289 289 289 288 289 288 288 288 288 288 288 289 289 290 291 292 294 293 292 291 290 290 291 292 293 293 293 296 300 302 304 305 306 308 309 310 311 311 311 311 310 311 311 311 310
282 282 282 282 283 283 283 283 283 283 284 284 285 285 286 286 287 287 287 287 288 288 288 289 289 288 288 288 288 288 288 288 288 287 287 288 288 289 290 291 292 292 291 291 290 290 290 291 292 292 294 298 301 303 305 306 307 307 308 309 310 311 310 310 310 310 310 311 309
282 282 282 282 282 283 283 283 283 283 283 284 285 285 286 286 286 287 287 287 287 287 288 288 288 288 288 288 288 288 288 289 288 287 287 287 288 288 289 289 291 291 291 290 290 290 290 291 291 293 295 300 302 304 305 306 306 307 307 308 309 309 309 309 309 309 310 309 303
282 282 282 282 282 282 283 283 282 283 283 284 285 285 285 286 286 286 287 287 287 287 287 288 288 288 288 287 288 288 288 288 288 287 287 287 288 288 288 288 290 290 290 290 290 290 290 291 291 292 295 300 303 305 306 306 306 306 307 308 308 308 308 308 309 309 310 310 299
282 282 282 282 282 282 282 282 282 283 283 284 284 285 285 286 286 286 287 287 288 288 288 288 288 288 288 287 287 287 287 288 288 287 287 287 287 287 287 288 289 289 290 290 290 290 290 291 291 293 295 301 305 306 307 306 306 306 306 308 308 308 308 308 309 310 310 310 303
282 282 282 282 282 282 282 282 282 283 283 284 284 285 285 286 286 286 287 287 287 288 288 288 287 288 287 287 287 287 287 287 287 287 287 287 287 287 287 287 288 289 289 290 290 290 290 291 292 293 295 300 305 307 307 306 306 306 306 307 307 307 307 308 308 309 309 309 308
Wind_Speed
11 11 10 9 9 9 9 9 9 9 9 9 10 10 10 10 10 10 10 10 10 10 10 10 10 11 12 14 15 16 16 16 17 17 17 18 17 17 16 16 15 15 15 15 15 14 13 14 13 12 11 11 12 13 13 12 13 14 14 14 13 14 15 17 16 17 18 18 15
12 12 12 11 10 9 9 9 9 9 9 9 10 10 10 10 10 10 10 10 10 10 10 10 11 12 14 16 16 16 16 17 17 17 17 17 18 18 17 16 15 15 15 16 15 14 13 13 13 11 10 10 12 13 13 13 13 14 16 18 15 13 13 15 16 17 18 18 16
13 12 12 11 11 10 10 9 10 11 11 11 10 10 10 10 10 10 10 11 11 11 11 10 11 13 15 17 16 16 16 17 17 17 16 16 17 17 16 15 16 16 15 15 15 14 13 13 12 11 10 10 11 12 13 14 14 15 16 18 15 13 12 12 14 15 15 14 16
13 13 12 13 14 14 13 11 12 13 14 12 12 12 12 11 11 11 11 12 13 12 12 11 12 13 14 15 16 16 16 16 17 17 17 17 17 17 17 16 16 16 16 16 16 15 15 15 12 11 10 12 13 13 12 12 14 14 14 14 13 13 12 12 12 12 12 12 15
13 13 13 13 15 15 15 14 15 15 14 12 12 11 11 11 11 11 12 12 12 12 12 13 13 13 13 15 17 17 17 17 17 16 16 16 17 17 17 16 16 16 17 17 16 16 16 16 12 10 10 11 11 11 12 13 14 14 13 11 12 12 12 12 11 11 11 11 12
14 14 14 14 16 16 15 15 16 16 15 13 13 13 12 11 11 11 12 13 13 14 15 16 15 15 15 17 17 17 17 17 17 16 17 17 16 17 17 17 17 16 16 16 16 16 16 15 12 10 10 10 11 11 13 14 14 13 13 12 11 11 12 12 11 11 12 13 14
15 16 16 16 17 17 16 16 16 16 16 15 16 16 16 14 14 15 16 15 15 15 15 14 15 15 16 17 17 17 17 16 16 17 18 17 17 17 18 17 17 16 16 16 16 15 14 13 11 10 10 10 10 11 13 14 13 13 13 13 12 11 11 13 11 11 12 15 17
16 16 17 17 17 17 18 18 17 16 16 14 15 17 18 18 18 18 18 17 16 15 14 13 15 17 17 17 17 17 17 17 17 17 17 17 18 18 18 17 17 17 17 16 16 15 14 11 10 9 10 10 9 10 12 14 14 14 14 14 12 11 11 11 11 11 13 16 18
15 16 17 17 17 17 17 18 18 18 17 17 18 19 19 19 19 19 18 17 16 15 15 14 17 18 19 19 19 18 17 17 17 17 17 17 17 18 17 16 16 16 16 16 16 16 15 12 10 10 10 9 9 10 12 14 15 15 15 14 13 12 12 11 12 13 15 16 17
16 16 17 17 17 17 17 18 18 18 19 19 20 20 20 19 19 18 17 15 15 15 16 16 17 18 19 19 19 18 17 17 16 17 17 17 17 17 17 15 16 16 16 15 15 15 15 13 11 11 11 11 12 12 13 14 15 16 15 12 12 14 15 14 15 16 16 15 16
17 17 17 16 17 17 17 17 17 17 17 18 19 19 19 18 18 17 16 15 15 17 18 17 18 18 19 18 18 17 17 16 15 16 16 17 17 17 17 16 16 17 17 16 15 14 13 12 12 13 14 13 13 14 14 15 16 16 16 13 14 15 16 16 16 15 15 16 17
17 17 17 16 17 17 17 16 15 15 16 17 18 18 18 17 17 17 17 17 18 18 18 18 18 18 18 17 17 16 16 16 16 16 16 17 17 17 17 17 17 18 18 18 16 14 12 12 14 15 16 16 14 13 13 15 16 17 17 16 16 16 16 17 16 15 14 15 16
17 17 17 17 17 17 16 16 14 14 15 16 16 16 16 16 16 17 17 18 17 16 16 16 17 17 17 16 16 16 15 15 16 16 16 16 17 17 17 17 18 18 18 17 16 15 14 14 16 17 17 17 15 14 14 16 16 17 17 18 17 17 17 17 17 15 15 16 16
18 17 17 17 17 16 15 15 13 13 14 15 15 15 15 15 15 15 15 16 16 15 15 15 15 15 15 16 16 16 16 16 16 17 17 17 17 17 17 17 17 17 17 16 16 16 16 16 17 18 18 18 17 16 16 16 16 17 17 18 18 18 18 18 17 17 17 17 16
17 17 17 17 17 16 14 14 12 12 13 14 14 14 13 13 13 13 14 15 16 15 15 14 14 14 15 17 17 17 17 17 17 18 18 18 18 18 18 17 17 17 17 16 16 17 18 18 19 19 19 19 18 18 17 17 17 17 17 17 18 18 18 18 18 17 17 17 17
17 17 17 17 16 15 14 13 11 11 12 13 13 13 13 12 12 13 14 15 14 14 14 14 14 14 14 16 17 17 17 17 17 18 18 18 18 18 18 18 18 17 17 17 17 17 17 18 18 19 19 19 19 18 18 18 18 18 18 18 18 18 18 18 18 18 18 18 17
17 17 16 16 16 16 15 14 12 12 12 13 14 14 13 13 12 13 13 14 14 14 14 16 15 14 14 15 15 16 16 16 16 17 17 17 17 17 18 18 18 17 18 18 17 17 18 18 17 18 18 19 19 18 18 18 18 18 19 19 19 19 18 18 18 18 18 18 18
16 16 16 16 16 16 16 16 15 14 14 15 15 14 14 13 13 13 14 14 15 15 16 17 16 16 15 16 15 14 14 15 16 16 16 16 17 17 17 18 17 17 17 18 18 18 18 18 18 18 18 18 18 18 18 18 18 18 19 19 19 19 19 19 19 18 18 18 18
16 16 16 16 16 16 16 16 16 16 16 16 15 15 15 15 15 15 15 15 16 17 17 18 17 16 16 17 16 15 14 15 16 17 17 17 17 17 17 18 17 17 17 18 18 18 19 19 19 18 18 18 17 17 17 18 17 18 18 19 19 19 19 19 19 18 18 18 18
16 16 16 16 16 16 16 16 16 16 16 15 16 16 17 17 17 16 16 16 16 17 17 18 17 17 17 17 17 17 16 15 16 17 18 18 18 18 18 18 18 18 18 18 18 18 18 18 19 19 19 18 18 18 18 18 18 18 18 17 18 18 19 19 19 19 19 19 18
16 16 16 16 16 16 16 16 16 16 16 16 17 17 17 17 17 17 17 17 17 17 17 17 17 17 17 17 17 17 16 15 16 17 18 18 18 18 18 18 18 17 17 17 17 18 18 18 18 18 18 18 18 19 18 18 18 18 18 16 17 18 19 19 19 19 19 19 19
16 15 15 16 16 16 16 16 16 16 16 16 16 17 17 17 16 16 17 17 16 16 16 16 16 16 16 16 16 16 15 14 15 16 16 17 17 17 17 17 17 17 18 18 18 18 19 19 19 18 18 17 18 18 18 18 17 17 18 17 18 18 19 19 19 19 19 20 19
16 16 15 15 15 15 16 16 16 16 16 16 16 16 16 16 16 16 16 16 15 15 15 15 15 15 15 15 15 15 15 15 15 16 16 16 17 17 17 16 17 18 18 17 17 18 18 18 18 18 18 17 17 18 18 17 17 17 17 18 18 19 19 18 18 19 19 19 19
16 16 15 13 14 15 16 16 16 16 16 16 16 16 16 16 16 15 15 15 15 14 14 13 13 13 14 14 14 15 15 15 16 16 16 17 17 17 17 16 16 17 17 15 15 16 16 15 15 16 16 16 16 16 16 17 16 16 17 17 18 18 18 18 19 19 19 19 19
16 16 15 14 15 15 15 16 16 16 16 15 15 15 15 15 15 14 14 14 14 14 13 13 13 12 12 12 13 13 14 15 15 16 16 16 17 16 16 15 15 15 14 14 15 17 17 15 14 14 14 14 14 15 15 16 16 16 17 17 17 17 17 18 19 19 19 19 19
16 16 16 15 16 16 16 16 16 16 16 15 15 15 15 14 14 14 14 14 13 13 13 12 12 11 10 11 11 12 12 12 13 14 15 15 16 16 16 14 13 12 12 13 16 18 19 19 17 15 14 13 13 13 14 14 15 16 17 17 17 17 17 18 18 19 19 18 19
16 16 16 16 16 16 16 16 16 16 16 15 15 15 15 14 13 13 13 13 13 13 12 11 10 10 9 9 11 11 12 11 12 13 14 15 15 16 16 14 13 12 12 14 16 18 20 20 20 19 17 15 14 13 13 13 14 15 16 17 17 17 17 18 18 19 18 18 18
16 16 16 16 16 16 16 16 16 15 15 15 15 15 14 14 14 14 13 13 13 12 11 10 9 8 8 8 9 10 11 12 12 12 13 14 15 16 16 15 14 13 14 16 17 19 20 21 22 22 21 18 16 14 14 13 14 14 14 15 16 17 18 18 17 17 17 17 17
16 16 16 16 16 16 16 16 16 16 15 15 15 15 15 15 14 14 13 13 13 12 10 9 8 7 7 8 9 10 11 12 12 12 12 13 14 15 15 16 15 16 17 18 19 20 21 22 23 23 23 22 16 13 12 12 12 12 12 13 14 16 17 17 16 16 16 16 16
16 16 16 16 16 16 16 15 15 15 15 14 14 15 15 14 14 13 13 13 12 11 10 9 9 9 9 10 10 10 10 11 11 11 12 14 15 15 15 15 16 16 17 19 20 21 21 22 23 24 24 24 20 16 13 13 12 12 12 12 14 16 17 17 17 17 16 15 16
16 16 16 16 16 16 16 15 15 15 15 14 14 14 14 13 13 13 13 12 12 11 11 11 11 11 11 11 10 10 11 11 11 11 12 13 14 15 16 16 17 17 18 21 22 23 23 23 24 24 24 25 21 17 15 14 13 12 12 12 15 17 18 17 17 17 17 17 16
16 16 16 16 16 16 15 15 15 15 15 15 14 14 14 13 13 13 12 12 12 12 12 12 12 12 12 12 11 12 12 12 12 12 12 13 14 15 16 16 17 17 17 19 22 24 25 24 24 24 25 25 21 19 17 16 14 13 13 14 16 18 18 16 15 17 18 18 16
16 16 16 15 15 15 15 15 15 15 15 15 14 14 13 13 13 12 12 11 11 12 12 11 12 12 12 12 12 12 12 12 13 13 13 14 14 15 15 15 13 11 9 10 13 18 22 24 24 24 24 25 21 19 18 17 14 12 12 14 16 17 18 17 16 16 17 17 16
16 16 15 15 15 15 15 15 15 15 15 14 14 13 13 13 13 12 12 11 11 11 11 11 11 11 11 11 12 12 12 12 12 13 13 14 14 14 14 13 9 8 10 12 9 7 13 19 21 22 22 23 19 17 17 18 15 13 13 14 15 16 16 16 16 15 16 16 15
16 16 15 15 15 15 15 15 15 15 14 14 14 13 13 13 13 13 12 12 11 11 10 10 10 10 10 11 11 11 12 13 13 13 13 14 14 13 13 12 10 10 12 14 13 9 6 11 15 18 19 18 15 15 16 17 16 15 14 15 15 15 15 15 15 15 15 16 15
15 15 15 15 15 15 15 15 15 15 15 14 14 14 14 13 13 12 12 12 12 11 11 11 11 11 11 12 11 11 12 13 13 13 13 13 14 14 13 13 12 12 13 14 13 11 7 5 9 12 13 12 11 12 13 14 13 13 14 15 14 14 14 14 14 14 14 15 15
15 15 15 15 15 15 15 14 15 15 15 14 14 14 14 13 13 12 12 12 12 12 11 11 11 12 12 13 12 12 12 12 13 13 13 13 14 14 14 13 13 13 13 14 13 11 7 4 7 9 10 9 9 10 10 10 9 10 12 12 12 13 12 11 11 12 13 13 13
15 15 15 15 15 15 15 14 15 15 15 14 14 14 13 13 12 12 12 11 11 11 11 11 12 12 12 13 12 12 12 12 12 13 13 14 14 14 14 14 13 13 13 14 13 10 7 4 6 8 9 8 8 8 8 8 8 8 9 9 9 10 10 8 8 9 10 12 8
15 15 15 15 15 15 15 15 15 15 15 14 14 14 13 12 11 11 11 11 11 11 11 11 12 12 12 12 11 11 12 13 12 12 13 13 14 14 15 14 14 13 13 14 13 9 5 5 7 9 9 8 8 7 6 6 7 7 8 7 7 8 8 8 8 8 9 11 6
15 15 15 15 15 14 14 15 15 14 14 14 14 13 13 12 11 11 11 10 11 10 10 10 11 12 12 11 11 11 12 13 12 12 12 13 14 15 15 14 14 14 14 15 13 8 5 7 9 10 10 8 8 7 6 6 6 7 7 6 6 6 7 7 7 7 7 8 6
14 15 15 15 14 14 14 15 15 15 14 14 14 13 12 11 11 11 11 10 11 10 10 9 11 12 12 11 10 11 12 13 13 13 13 13 14 14 15 15 15 16 16 16 14 7 4 10 11 11 10 8 7 7 6 5 5 6 6 6 5 5 5 6 6 5 5 6 5
Wind_Direction
290 286 284 282 281 279 278 276 275 274 273 273 272 272 271 271 270 270 269 268 268 269 270 270 271 272 273 273 272 272 271 271 270 269 268 268 269 271 272 275 276 275 271 267 263 259 255 251 247 244 240 238 237 237 236 234 233 232 231 230 229 229 229 229 229 229 229 230 231
289 286 284 282 279 277 275 274 271 269 268 267 267 268 268 268 268 268 268 266 266 268 270 270 271 272 273 274 274 274 275 275 275 274 272 270 268 269 270 272 273 272 271 269 264 261 257 253 250 247 242 238 237 235 234 232 231 232 233 231 231 230 229 229 229 229 230 230 230
289 287 285 281 278 276 274 272 271 270 269 269 268 267 267 268 268 268 268 267 267 267 267 268 269 269 270 270 270 270 271 272 273 273 272 269 268 267 268 269 271 271 270 268 263 260 257 254 253 250 247 243 239 237 235 232 230 231 232 231 231 230 229 229 228 228 228 229 228
288 286 283 280 277 276 274 273 273 273 272 270 269 268 267 267 267 268 268 268 267 266 265 266 268 268 267 267 266 266 266 267 269 271 272 272 272 270 268 267 267 268 267 265 262 258 256 253 252 251 249 248 245 243 239 235 231 229 229 229 229 229 228 228 227 226 226 227 226
288 285 282 280 279 278 276 274 274 273 272 269 267 265 264 263 264 266 267 267 265 264 264 265 266 266 266 265 266 266 267 267 267 268 270 273 275 276 275 271 268 267 265 264 261 258 255 252 250 248 247 247 245 243 242 240 236 232 229 227 227 227 227 227 226 225 225 225 224
288 286 284 283 283 282 280 278 277 276 275 272 268 266 264 262 262 263 264 265 266 266 266 265 265 265 264 264 264 265 265 265 264 264 264 264 266 268 269 270 268 266 265 265 263 259 255 250 249 246 244 244 244 243 241 239 238 235 232 228 226 225 226 226 225 224 223 222 222
289 288 288 286 285 284 283 283 281 280 278 276 273 271 269 266 265 264 264 266 267 267 266 264 262 262 262 261 261 261 261 261 261 261 261 261 260 260 260 262 263 264 265 266 265 261 256 249 247 244 241 239 240 239 238 237 236 235 232 230 227 225 224 225 225 225 223 222 221
289 288 287 285 284 282 281 281 280 279 278 276 274 273 272 270 269 268 267 267 266 265 264 262 261 260 260 259 259 258 258 259 258 258 258 258 257 257 257 258 259 261 262 264 265 263 260 253 248 244 240 237 236 235 234 234 234 233 232 230 229 226 223 222 224 225 225 223 220
290 288 287 286 284 283 281 280 279 278 276 274 273 272 272 271 270 269 268 267 265 263 262 261 260 260 260 259 258 258 257 256 255 255 255 255 255 256 256 256 256 257 259 260 262 262 261 258 252 246 241 237 235 233 232 232 232 231 230 229 229 226 223 220 220 223 224 223 221
292 291 290 289 288 286 285 284 281 279 278 276 275 274 272 271 270 268 267 265 263 261 260 260 260 260 259 259 258 257 256 255 254 253 253 252 252 252 252 253 252 253 254 255 257 259 259 258 252 247 243 239 236 234 233 231 231 230 228 227 227 226 225 221 219 219 221 222 220
294 294 293 291 291 289 288 286 284 282 280 278 277 275 273 271 268 266 265 263 262 260 259 259 259 259 258 258 257 256 255 254 254 252 252 251 250 249 249 248 248 249 249 250 251 253 255 255 252 248 244 241 237 235 233 231 231 230 229 228 227 227 227 224 220 218 218 219 219
296 295 294 292 292 290 289 287 286 284 282 280 278 277 275 273 271 269 267 265 263 261 260 259 258 258 258 257 256 255 254 253 253 252 251 250 249 248 247 246 246 246 246 246 246 247 249 251 251 249 246 241 237 233 231 230 230 230 229 228 227 227 228 228 224 220 217 216 217
299 297 296 295 294 293 291 289 287 285 283 282 281 279 278 276 274 272 270 267 265 264 262 260 259 258 258 257 256 256 255 253 252 251 250 249 248 247 246 245 244 243 243 243 243 242 243 246 248 248 245 240 236 232 229 228 228 228 228 227 226 226 227 228 228 225 221 216 215
301 300 299 298 298 297 296 294 291 288 286 284 283 282 280 279 277 275 273 270 268 267 265 263 261 259 257 256 255 254 253 252 251 249 248 247 246 245 244 244 242 241 240 239 239 239 239 241 243 244 243 240 235 231 228 227 227 227 227 227 226 226 227 228 228 228 226 222 218
303 302 302 302 302 301 299 297 294 291 288 287 285 284 283 281 279 277 275 273 271 269 267 265 262 259 257 256 254 253 252 251 249 249 248 246 245 244 243 243 242 241 240 238 237 237 237 237 239 240 241 239 234 230 227 226 226 226 226 227 226 226 226 227 227 228 229 228 225
305 305 305 305 304 303 300 298 294 291 289 287 286 285 284 282 280 277 275 273 272 269 267 265 263 261 259 257 256 255 254 253 252 251 250 249 248 246 245 244 244 243 242 241 240 238 237 236 237 238 238 238 234 230 226 224 224 224 225 225 226 226 226 227 226 227 228 230 230
307 307 307 306 305 303 300 298 294 291 288 287 286 284 283 281 279 276 274 272 270 269 267 266 265 263 261 259 258 257 256 255 254 253 252 251 250 249 248 246 245 245 244 243 242 241 240 239 238 237 237 236 234 231 227 223 223 223 223 223 224 224 225 225 225 226 227 228 230
309 308 308 307 305 303 300 298 294 292 289 288 286 285 283 281 279 277 275 272 271 269 268 267 265 263 261 260 258 257 256 254 253 252 251 250 250 249 248 247 246 245 244 243 243 242 242 241 240 239 237 236 234 231 227 224 223 222 222 222 221 222 223 224 224 224 225 226 228
310 310 309 307 305 303 300 298 295 293 292 290 288 287 285 283 281 280 278 275 273 271 269 268 266 263 261 259 258 256 255 254 254 253 251 250 249 248 247 246 245 244 243 243 242 242 242 241 241 240 239 236 233 230 227 225 223 222 222 221 221 221 221 222 223 223 223 224 225
311 311 310 308 305 303 300 298 296 294 293 292 290 288 287 285 284 282 280 278 275 273 271 269 268 265 263 260 259 257 255 254 254 253 252 251 250 248 247 246 245 244 244 243 242 242 241 241 240 239 239 237 234 230 226 224 223 222 222 222 221 220 220 221 222 222 223 223 223
313 312 310 308 305 302 300 298 297 295 294 292 291 290 288 287 285 283 282 280 278 276 274 273 271 270 267 265 263 260 258 256 254 253 252 251 249 248 247 246 245 244 243 242 242 242 241 240 239 238 238 237 234 230 226 223 222 221 221 221 220 219 218 219 220 221 222 222 222
314 312 310 308 305 303 300 299 298 296 295 293 292 291 290 289 287 286 285 284 282 281 279 278 276 274 272 270 267 265 262 260 256 254 253 251 249 247 246 244 243 242 242 241 240 240 240 240 239 238 238 238 235 231 226 222 220 220 220 220 220 219 218 217 218 220 221 221 221
315 313 311 308 305 303 301 300 299 298 296 294 294 293 292 292 291 289 288 287 286 285 283 282 280 278 276 274 272 269 267 264 261 258 255 253 251 249 247 245 243 242 240 239 238 238 238 239 238 237 237 238 237 234 229 222 219 218 218 219 220 220 219 217 217 219 220 221 220
315 313 311 308 307 305 303 302 301 300 299 298 297 296 295 294 294 293 291 290 289 288 287 285 284 282 280 278 276 274 271 269 266 263 260 257 255 252 250 246 243 241 240 238 235 234 234 235 235 235 235 236 237 236 233 225 219 217 216 218 220 220 219 217 216 218 219 221 220
316 314 312 310 308 307 306 305 305 303 302 301 300 299 299 298 297 297 296 294 293 292 291 290 289 287 286 283 281 278 275 272 270 268 266 263 260 257 253 250 246 243 240 237 232 230 229 230 232 233 233 233 234 236 235 230 222 218 216 217 218 220 220 219 217 217 218 220 220
317 315 313 312 311 310 309 308 307 306 305 304 304 303 303 303 302 301 301 300 300 300 299 297 296 293 290 287 284 281 278 274 272 270 268 266 263 259 256 253 249 246 242 236 230 227 225 225 228 230 233 234 234 235 235 232 225 220 217 217 218 219 220 219 218 217 217 219 220
318 317 315 314 313 312 311 310 309 308 308 308 308 308 308 308 307 307 307 307 308 307 306 304 301 297 293 290 288 286 284 281 277 274 271 268 265 261 258 254 250 246 242 235 229 224 221 220 222 225 229 234 235 236 235 234 228 223 219 217 218 219 220 220 219 218 217 217 219
320 319 317 316 315 314 313 312 312 311 312 312 312 312 312 312 312 312 312 313 314 313 312 309 306 302 299 297 296 295 294 291 287 282 277 273 269 266 262 257 253 248 243 237 230 225 220 217 217 218 221 227 233 237 238 237 232 226 221 218 218 219 220 221 221 219 217 216 216
322 320 319 318 317 316 315 315 315 315 315 315 315 316 316 316 316 316 317 318 318 317 315 312 310 309 307 307 306 304 301 298 294 289 284 279 274 269 264 260 256 251 246 240 234 227 221 217 215 214 215 218 224 230 235 235 233 228 224 220 218 218 219 220 220 218 217 215 214
323 322 320 319 318 318 318 318 318 318 318 317 317 318 318 319 319 320 320 321 320 319 317 315 316 316 316 316 315 312 309 305 300 296 291 287 281 276 271 266 260 254 248 240 234 229 223 218 215 212 212 212 217 223 230 232 231 228 224 222 219 218 218 219 218 217 216 214 213
324 323 322 321 320 320 320 320 320 320 319 318 319 320 321 321 322 323 323 322 321 319 318 319 321 323 324 324 322 319 316 312 309 304 299 294 289 285 280 274 267 258 248 238 232 227 223 218 214 211 209 208 211 217 224 229 229 227 224 221 220 218 218 218 217 216 214 213 212
325 324 323 323 322 322 322 322 322 322 321 320 321 322 323 324 324 324 324 323 322 322 324 326 329 330 330 330 327 325 322 320 317 313 307 301 297 292 287 280 271 263 253 240 229 223 219 216 213 210 208 205 207 213 220 226 227 226 224 222 220 218 217 215 214 214 213 212 212
327 326 325 325 325 324 324 324 324 324 323 323 324 325 326 326 326 326 326 327 326 327 329 332 334 334 334 333 330 328 326 324 322 318 314 309 304 301 296 289 279 282 288 278 242 223 215 212 211 209 207 203 206 211 218 223 224 224 222 220 219 218 216 213 213 213 213 212 212
329 328 328 327 327 327 326 327 327 326 325 325 326 328 329 330 329 329 330 331 330 330 331 334 336 336 335 333 331 330 329 328 327 324 321 317 313 311 308 303 312 342 355 345 322 261 222 210 208 207 206 203 205 210 216 219 220 219 217 216 216 214 213 211 210 211 212 213 212
331 330 329 329 329 329 329 330 329 328 328 328 329 331 332 332 332 332 333 334 331 331 333 337 338 338 336 334 332 331 331 331 331 329 327 325 324 322 320 318 326 338 348 349 343 326 268 214 206 204 203 201 205 210 215 217 217 216 213 212 212 210 209 207 208 209 211 213 213
332 331 331 330 331 331 332 332 332 331 331 331 333 334 335 334 334 335 336 334 332 333 336 339 342 342 341 338 336 334 334 335 334 333 332 333 334 333 330 328 330 335 340 342 340 333 311 232 203 196 196 197 204 210 212 212 211 210 208 208 207 206 205 204 206 207 209 210 212
334 333 332 332 333 334 334 334 334 334 333 334 335 336 336 335 336 337 338 335 333 335 337 341 345 346 345 341 337 336 336 336 336 336 337 340 342 341 338 335 336 337 338 338 333 327 312 251 196 184 184 193 203 208 209 206 204 202 202 203 203 203 202 202 204 206 208 207 209
336 335 335 335 335 336 337 337 337 336 335 335 336 337 337 336 337 338 338 335 334 335 338 342 347 347 345 340 336 335 337 338 339 340 341 344 347 346 344 341 341 340 338 335 328 318 299 243 191 178 178 192 201 205 205 202 198 196 196 197 199 199 199 198 201 205 206 204 204
338 338 338 338 338 339 339 339 339 338 337 336 337 337 338 338 339 339 338 335 334 336 339 343 347 347 344 339 336 337 339 341 343 344 346 348 350 351 349 347 346 344 341 336 327 313 278 220 189 179 178 191 198 202 201 199 196 194 193 193 194 195 196 198 201 205 206 203 193
340 340 340 341 341 341 341 341 341 340 339 338 338 338 338 340 339 339 337 336 337 339 341 344 348 347 344 340 339 340 342 343 346 348 349 350 353 355 356 354 351 349 345 342 334 315 250 199 185 179 180 191 196 198 197 196 194 193 193 193 192 193 196 199 204 208 212 211 203
343 343 343 344 344 344 344 343 342 342 341 340 340 339 339 340 340 341 341 341 343 344 345 347 348 348 346 344 343 344 345 345 347 349 350 351 355 359 1 0 357 355 353 351 347 332 226 187 181 180 182 192 194 193 191 192 192 193 195 197 198 200 203 206 208 213 221 232 229